Date,TemperatureHighF,TemperatureAvgF,TemperatureLowF,DewpointHighF,DewpointAvgF,DewpointLowF,HumidityHigh,HumidityAvg,HumidityLow,PressureMaxIn,PressureMinIn,WindSpeedMaxMPH,WindSpeedAvgMPH,GustSpeedMaxMPH,PrecipitationSumIn
2013-4-1,71.6,55.0,39.2,53.0,42.6,28.5,93,67,42,30.01,29.76,21,4,21,0.00
2013-4-2,57.0,44.9,29.3,29.8,23.4,17.4,80,45,23,30.19,30.01,15,3,15,0.00
2013-4-3,57.7,43.1,25.5,29.3,21.5,14.7,85,47,23,30.39,30.19,14,3,14,0.00
2013-4-4,51.3,40.4,28.8,37.5,23.9,14.0,93,55,32,30.44,30.05,11,2,11,0.38
2013-4-5,65.3,49.4,37.6,47.5,38.8,32.7,93,71,37,30.06,29.86,13,3,13,0.18
2013-4-6,60.3,49.3,38.5,36.5,30.1,23.8,83,50,30,30.34,30.04,11,3,11,0.00
2013-4-7,73.2,55.6,33.4,47.3,40.0,30.1,93,59,37,30.32,30.06,16,4,16,0.00
2013-4-8,84.7,69.5,54.0,59.0,52.8,44.3,83,57,39,30.13,30.00,11,4,11,0.00
2013-4-9,89.4,75.8,60.8,63.4,58.7,54.9,87,57,39,30.14,30.00,13,4,13,0.00
2013-4-10,93.4,80.0,64.9,66.4,62.2,58.5,81,56,39,30.05,29.86,14,4,14,0.00
2013-4-11,89.4,77.2,66.7,67.2,63.2,60.4,85,63,44,29.93,29.77,15,5,15,0.00
2013-4-12,85.1,74.1,65.5,73.9,66.4,50.6,93,78,56,29.79,29.57,16,4,16,0.70
2013-4-13,73.8,63.6,46.9,56.7,47.0,43.3,93,57,36,29.96,29.70,11,3,11,0.00
2013-4-14,77.4,61.7,41.5,51.2,44.7,39.7,93,58,32,30.13,29.96,11,2,11,0.00
2013-4-15,69.6,60.2,53.2,60.3,53.9,41.5,93,81,48,30.28,30.09,10,2,10,0.11
2013-4-16,79.0,66.1,53.2,65.9,60.0,51.3,93,82,59,30.32,30.19,8,2,8,0.00
2013-4-17,83.1,72.3,62.1,69.3,65.0,60.0,93,79,60,30.22,30.13,8,2,8,0.00
2013-4-18,82.6,70.8,60.4,69.5,63.1,58.2,93,78,55,30.23,30.05,13,3,13,0.00
2013-4-19,83.3,71.4,64.9,73.4,66.8,62.9,93,86,67,30.06,29.68,21,4,21,0.52
2013-4-20,65.5,56.1,44.1,63.4,42.8,33.7,93,64,34,30.32,29.75,13,2,13,0.01
2013-4-21,59.4,49.9,39.4,41.7,34.9,30.5,93,58,41,30.57,30.32,11,2,11,0.00
2013-4-22,60.6,47.3,32.7,45.2,39.6,30.9,93,76,54,30.56,30.36,11,2,11,0.07
2013-4-23,62.1,51.5,46.2,51.8,47.4,44.1,93,86,65,30.37,30.14,8,2,8,0.01
2013-4-24,80.6,64.0,43.9,62.5,54.7,42.0,93,74,50,30.14,29.90,16,3,16,0.00
2013-4-25,67.6,59.6,50.0,59.8,43.4,36.3,83,56,37,30.30,29.97,12,3,12,0.00
2013-4-26,70.5,56.1,39.0,49.9,42.9,37.2,93,65,35,30.47,30.30,9,2,9,0.00
2013-4-27,74.5,61.8,47.7,51.2,47.2,42.9,93,62,40,30.43,30.30,8,2,8,0.00
2013-4-28,66.4,58.7,52.3,54.0,46.5,42.0,93,65,46,30.32,30.15,7,2,7,0.01
2013-4-29,65.5,59.7,54.5,63.4,57.7,52.5,93,93,93,30.16,30.01,8,1,8,0.58
2013-4-30,66.4,59.8,56.5,63.7,57.7,54.5,93,93,88,30.26,30.07,8,2,8,0.02